Regional Weather Roundup
Issued by NWS

Current Version | Previous Version | Text Only | Print | Product List | Glossary On
Versions: 1 2 3 4 5 6 7 8 9 10 11 12 13 14 15 16 17 18 19 20 21 22 23 24 25 26 27 28 29 30 31 32 33 34 35 36 37 38 39 40 41 42 43 44 45 46 47 48 49 50
000
ASUS45 KPSR 260510
RWRAZ

ARIZONA HOURLY REGIONAL WEATHER ROUNDUP
NATIONAL WEATHER SERVICE PHOENIX AZ
1000 PM MST SAT FEB 25 2017

NOTE: FAIR INDICATES FEW OR NO CLOUDS BELOW 12,000 FEET WITH NO
SIGNIFICANT WEATHER AND/OR OBSTRUCTIONS TO VISIBILITY.

AZZ001>003-036-260600-
NORTHWEST ARIZONA

CITY           SKY/WX    TMP DP  RH WIND       PRES   REMARKS
BULLHEAD CITY  CLOUDY    59  30  33 SE5       29.92F
KINGMAN        CLOUDY    43  12  28 CALM      29.96R
$$

AZZ004>008-015-016-018-260600-
NORTH CENTRAL ARIZONA

CITY           SKY/WX    TMP DP  RH WIND       PRES   REMARKS
GRAND CANYON   CLOUDY    32  16  51 SW13      29.95R WCI  22
WILLIAMS       CLOUDY    32  16  51 SW14G21   29.97S WCI  22
PRESCOTT       MOCLDY    38  20  48 CALM      29.98S
FLAGSTAFF      FLURRIES  30  15  53 SW16G26   29.96S WCI  19
PAYSON         CLOUDY    39  21  48 CALM      30.01S
PAGE           PTCLDY    43   5  20 W9G18     29.90S
$$

AZZ009>014-017-260600-
NORTHEAST ARIZONA

CITY           SKY/WX    TMP DP  RH WIND       PRES   REMARKS
WINSLOW        MOCLDY    39  18  42 SW8       29.95S WCI  33
SAINT JOHNS    CLOUDY    41   2  19 SW20      29.92R
WINDOW ROCK    CLOUDY    34   8  33 SW5       29.91R WCI  30
SHOW LOW       CLOUDY    34   7  32 S14       29.97F WCI  24
$$

AZZ023-260600-
GREATER PHOENIX AREA

CITY           SKY/WX    TMP DP  RH WIND       PRES   REMARKS
PHOENIX        CLOUDY    61  22  22 CALM      29.94S
BUCKEYE        CLOUDY    54  39  58 NE7       29.95S
LUKE AFB       CLOUDY    56  36  47 CALM      29.94S
DEER VALLEY    CLOUDY    54  31  41 NE6       29.94S
SCOTTSDALE     CLOUDY    57  26  30 CALM      29.96S
MESA-GATEWAY   CLEAR     54  39  58 CALM      29.97S
$$

AZZ027-028-260600-
SOUTHWEST MARICOPA COUNTY AND PINAL COUNTY

CITY           SKY/WX    TMP DP  RH WIND       PRES   REMARKS
CASA GRANDE    NOT AVBL
$$

AZZ503-504-507>509-260600-
SOUTHEAST ARIZONA

CITY           SKY/WX    TMP DP  RH WIND       PRES   REMARKS
TUCSON         PTCLDY    53  15  22 CALM      30.00R
DAVIS-MONTHAN  CLOUDY    49  19  29 S6        29.98R
NOGALES        CLEAR     48   9  20 SE6       30.01S
SIERRA VISTA   CLEAR     49   5  16 SW6       30.02S
DOUGLAS        CLEAR     43   8  23 VRB5      30.01R
SAFFORD        CLEAR     48  11  22 NW8       29.95R
$$

AZZ020-021-025-026-031-260600-
SOUTHWEST ARIZONA

CITY           SKY/WX    TMP DP  RH WIND       PRES   REMARKS
YUMA           MOCLDY    60  34  37 S8        29.94S
$$

CAZ031-033-041-043-047-048-061-260600-
SOUTHERN CALIFORNIA

CITY           SKY/WX    TMP DP  RH WIND       PRES   REMARKS
DOWNTOWN L.A.  MOCLDY    54  41  61 CALM      30.02S
L.A. AIRPORT   CLOUDY    53  40  61 W14       30.02S
SAN DIEGO      CLOUDY    57  43  59 W8        30.07R
BURBANK        MOCLDY    51  41  68 W5        30.01S
ONTARIO        CLOUDY    51  44  77 W12       30.01R
RIVERSIDE      CLOUDY    51  44  77 W9        30.01R
PALM SPRINGS   MOCLDY    58  38  47 VRB6      29.94F
EL CENTRO NAS  MOCLDY    62  27  26 W16       29.95S
IMPERIAL       CLOUDY    62  30  29 W9        29.93F
BLYTHE         CLOUDY    61  31  32 CALM      29.94R
NEEDLES        MOCLDY    61  26  26 SW3       29.92R
$$

NVZ020-UTZ003-260600-
SOUTHERN NEVADA-UTAH

CITY           SKY/WX    TMP DP  RH WIND       PRES   REMARKS
LAS VEGAS      MOCLDY    49  18  29 CALM      29.92R
SALT LAKE CITY PTCLDY    27  20  75 SE5       29.99S WCI  22
$$

NMZ009-TXZ055-260600-
NEW MEXICO-WEST TEXAS

CITY           SKY/WX    TMP DP  RH WIND       PRES   REMARKS
ALBUQUERQUE    PTCLDY    41   5  22 CALM      29.89R
EL PASO        CLEAR     55   3  12 NW7       29.93R
$$


........................KEY........................
SKY/WX - SKY CONDITION/WEATHER
TMP    - TEMPERATURE IN FAHRENHEIT
DP     - DEW POINT IN FAHRENHEIT
RH     - RELATIVE HUMIDITY IN PERCENT
WIND   - DIRECTION AND SPEED IN MILES PER HOUR (MPH)
VRB    - VARIABLE WIND DIRECTION
PRES   - MEAN SEA LEVEL PRESSURE IN INCHES OF MERCURY
         F - FALLING PRESSURE   R - RISING PRESSURE
         S - STEADY PRESSURE
VSB    - VISIBILITY IN MILES
HX     - HEAT INDEX IN FAHRENHEIT
WCI    - WIND CHILL INDEX IN FAHRENHEIT
TC     - TEMPERATURE IN CELSIUS WHICH IS ALSO KNOWN AS
         TEMPERATURE IN CENTIGRADE
AFB    - AIR FORCE BASE
         LUKE AFB IS LUKE AIR FORCE BASE
         DAVIS-MONTHAN IS DAVIS-MONTHAN AIR FORCE BASE
NAS    - NAVAL AIR STATION
         EL CENTRO NAS IS EL CENTRO NAVAL AIR STATION
N/A    - NOT AVAILABLE




USA.gov is the U.S. government's official web portal to all federal, state and local government web resources and services.